CAPE
0 0 0 0 0 0 0 0 0 0 0 0 0 0 0 0 0 0 0 0 0 0 0 0 0 0 0 0 0 0 0 0 0 0 0 0 0 0 0 98 280 425 545 621 714 734 573 646 710
0 0 0 0 0 0 0 0 0 0 0 0 0 0 0 0 0 0 0 0 0 0 0 0 0 0 0 0 0 0 0 0 0 0 0 0 0 0 0 0 23 195 342 513 634 747 604 605 664
0 0 0 0 0 0 0 0 0 0 0 0 0 0 0 0 0 0 0 0 0 0 0 0 0 0 0 0 0 0 0 0 0 0 0 0 0 0 0 0 0 0 162 249 445 500 682 594 553
0 0 0 0 0 0 0 0 0 0 0 0 0 0 0 0 0 0 0 0 0 0 0 0 0 0 0 0 0 0 0 0 0 0 0 0 0 0 0 0 0 0 0 36 146 329 383 437 464
0 0 0 0 0 0 0 0 0 0 0 0 0 0 0 0 0 0 0 0 0 0 0 0 0 0 0 0 0 0 0 0 0 0 0 0 0 0 0 1 0 0 0 0 14 97 287 268 432
0 0 0 0 0 0 0 0 0 0 0 0 0 0 0 0 0 0 0 0 0 0 0 0 0 0 0 0 0 0 0 0 0 0 0 0 0 0 0 0 1 2 0 0 0 4 163 136 204
0 0 0 0 0 0 0 0 0 0 0 0 0 0 0 0 0 0 0 0 0 0 0 0 0 0 0 0 0 0 0 0 0 0 0 0 0 0 0 0 0 0 3 6 3 6 20 105 111
0 0 0 0 0 0 0 0 0 0 0 0 0 0 0 0 0 0 0 0 0 0 0 0 0 0 0 0 0 0 0 0 0 0 0 0 0 0 0 0 0 0 0 4 8 6 7 53 62
0 0 0 0 0 0 0 0 0 0 0 0 0 0 0 0 0 0 0 0 0 0 0 0 0 0 0 0 0 0 0 0 0 0 0 0 0 0 0 0 0 0 0 4 4 2 2 42 74
0 0 0 0 0 0 0 0 0 0 0 0 0 0 0 0 0 0 0 0 0 0 0 0 0 0 0 0 0 0 0 0 0 0 0 0 0 0 0 0 0 0 0 0 0 1 1 11 93
0 0 0 0 0 0 0 0 0 0 0 0 0 0 0 0 0 0 0 0 0 0 0 0 0 0 0 0 0 0 0 0 0 0 0 0 0 0 0 0 0 0 0 0 0 2 32 48 17
0 0 0 0 0 0 0 0 0 0 0 0 0 0 0 0 0 0 0 0 0 0 0 0 0 0 0 0 0 0 0 0 0 0 0 0 0 0 0 0 0 0 0 1 3 14 37 44 15
0 0 0 0 0 0 0 0 0 0 0 0 0 0 0 0 0 0 0 0 0 0 0 0 0 0 0 0 0 0 0 0 0 0 0 0 0 0 0 0 0 0 0 8 6 22 45 63 19
0 0 0 0 0 0 0 0 0 0 0 0 0 0 0 0 0 0 0 0 0 0 0 0 0 0 0 0 0 0 0 0 0 0 0 0 0 0 0 0 0 0 2 14 11 9 69 89 15
0 0 0 0 0 0 0 0 0 0 0 0 0 0 0 0 0 0 0 0 0 0 0 0 0 0 0 0 0 0 0 0 0 0 0 0 0 0 0 0 0 0 0 21 32 73 107 81 20
0 0 0 0 0 0 0 0 0 0 0 0 0 0 0 0 0 0 0 0 0 0 0 0 0 0 0 0 0 0 0 0 0 0 0 0 0 0 0 0 0 0 41 35 35 71 102 67 65
0 0 0 0 0 0 0 0 0 0 0 0 0 0 0 0 0 0 0 0 0 0 0 0 0 0 0 0 0 0 0 0 0 0 0 0 0 4 0 2 10 31 55 53 50 73 148 94 45
0 0 0 0 0 0 0 0 0 0 0 0 0 0 0 0 0 0 0 0 0 0 0 0 0 0 0 0 0 0 0 0 0 0 0 1 8 15 16 14 19 24 50 58 82 92 260 167 71
0 0 0 0 0 0 0 0 0 0 0 0 0 0 0 0 0 0 0 0 0 0 0 0 0 0 0 0 0 0 0 0 0 0 4 14 13 23 3 9 7 16 33 16 52 106 209 139 3
0 0 0 0 0 0 0 0 0 0 0 0 0 0 0 0 0 0 0 0 0 0 0 0 0 0 0 0 0 0 0 0 0 0 0 0 5 5 0 3 2 1 14 11 70 146 68 3 9
0 0 0 0 0 0 0 0 0 0 0 0 0 0 0 0 0 0 0 0 0 0 0 0 0 0 0 0 0 0 0 0 0 0 0 0 0 0 0 0 0 0 2 29 81 59 36 24 21
0 0 0 0 0 0 0 0 0 0 0 0 0 0 0 0 0 0 0 0 0 0 0 0 0 0 0 0 0 0 0 0 0 0 0 0 0 0 0 0 0 0 1 9 75 9 36 24 4
0 0 0 0 0 0 0 0 0 0 0 0 0 0 0 0 0 0 0 0 0 0 0 0 0 0 0 0 0 0 0 0 0 0 0 0 0 0 0 0 0 0 0 1 53 5 0 1 22
0 0 0 0 0 0 0 0 0 0 0 0 0 0 0 0 0 0 0 0 0 0 0 0 0 0 0 0 0 0 0 0 0 0 0 0 0 0 0 0 0 0 0 1 6 3 0 0 0
0 0 0 0 0 0 0 0 0 0 0 0 0 0 0 0 0 0 0 0 0 0 0 0 0 0 0 0 0 0 0 0 0 0 0 0 0 0 0 0 0 0 0 0 1 3 2 0 0
0 0 0 0 0 0 0 0 0 0 0 0 0 0 0 0 0 0 0 0 0 0 0 0 0 0 0 0 0 0 0 0 0 0 0 0 0 0 0 0 0 0 0 0 0 6 4 1 1
0 0 0 0 0 0 0 0 0 0 0 0 0 0 0 0 0 0 0 0 0 0 0 0 0 0 0 0 0 0 0 0 0 0 0 0 0 0 0 0 0 0 0 0 0 5 2 1 1
0 0 0 0 0 0 0 0 0 0 0 0 0 0 0 0 0 0 0 0 0 0 0 0 0 0 0 0 0 0 0 0 0 0 0 0 0 0 0 0 0 0 0 0 0 2 1 2 3
0 0 0 0 0 0 0 0 0 0 0 0 0 0 0 0 0 0 0 0 0 0 0 0 0 0 0 0 0 0 0 0 0 0 0 0 0 0 0 0 0 0 0 0 0 3 1 1 2
0 0 0 0 0 0 0 0 0 0 0 0 0 0 0 0 0 0 0 0 0 0 0 0 0 0 0 0 0 0 0 0 0 0 0 0 0 0 0 0 0 0 0 0 0 3 4 4 2
CIN
-0 -0 -0 -0 -0 -0 -0 -0 -0 -0 -0 -0 -0 -0 -0 -0 -0 -0 -0 -0 -0 -0 -0 -0 -0 -0 -0 -0 -0 -0 -0 -0 -0 -0 -0 -0 -0 -0 -0 -232 -115 -52 -13 -0 -0 -0 -3 -3 -3
-0 -0 -0 -0 -0 -0 -0 -0 -0 -0 -0 -0 -0 -0 -0 -0 -0 -0 -0 -0 -0 -0 -0 -0 -0 -0 -0 -0 -0 -0 -0 -0 -0 -0 -0 -0 -0 -0 -0 -0 -252 -151 -72 -18 -0 -0 -1 -3 -3
-0 -0 -0 -0 -0 -0 -0 -0 -0 -0 -0 -0 -0 -0 -0 -0 -0 -0 -0 -0 -0 -0 -0 -0 -0 -0 -0 -0 -0 -0 -0 -0 -0 -0 -0 -0 -0 -0 -0 -0 -0 -0 -166 -98 -26 -6 -0 -3 -2
-0 -0 -0 -0 -0 -0 -0 -0 -0 -0 -0 -0 -0 -0 -0 -0 -0 -0 -0 -0 -0 -0 -0 -0 -0 -0 -0 -0 -0 -0 -0 -0 -0 -0 -0 -0 -0 -0 -0 -0 -0 -0 -0 -264 -132 -34 -11 -4 -3
-0 -0 -0 -0 -0 -0 -0 -0 -0 -0 -0 -0 -0 -0 -0 -0 -0 -0 -0 -0 -0 -0 -0 -0 -0 -0 -0 -0 -0 -0 -0 -0 -0 -0 -0 -0 -0 -0 -0 -0 -0 -0 -0 -0 -249 -168 -47 -24 -6
-0 -0 -0 -0 -0 -0 -0 -0 -0 -0 -0 -0 -0 -0 -0 -0 -0 -0 -0 -0 -0 -0 -0 -0 -0 -0 -0 -0 -0 -0 -0 -0 -0 -0 -0 -0 -0 -0 -0 -0 -0 -0 -0 -0 -0 -0 -100 -83 -39
-0 -0 -0 -0 -0 -0 -0 -0 -0 -0 -0 -0 -0 -0 -0 -0 -0 -0 -0 -0 -0 -0 -0 -0 -0 -0 -0 -0 -0 -0 -0 -0 -0 -0 -0 -0 -0 -0 -0 -0 -0 -0 -0 -0 -0 -1 -72 -96 -75
-0 -0 -0 -0 -0 -0 -0 -0 -0 -0 -0 -0 -0 -0 -0 -0 -0 -0 -0 -0 -0 -0 -0 -0 -0 -0 -0 -0 -0 -0 -0 -0 -0 -0 -0 -0 -0 -0 -0 -0 -0 -0 -0 -0 -0 -0 -0 -173 -107
-0 -0 -0 -0 -0 -0 -0 -0 -0 -0 -0 -0 -0 -0 -0 -0 -0 -0 -0 -0 -0 -0 -0 -0 -0 -0 -0 -0 -0 -0 -0 -0 -0 -0 -0 -0 -0 -0 -0 -0 -0 -0 -0 -0 -0 -0 -0 -190 -121
-0 -0 -0 -0 -0 -0 -0 -0 -0 -0 -0 -0 -0 -0 -0 -0 -0 -0 -0 -0 -0 -0 -0 -0 -0 -0 -0 -0 -0 -0 -0 -0 -0 -0 -0 -0 -0 -0 -0 -0 -0 -0 -0 -0 -0 -0 -1 -59 -109
-0 -0 -0 -0 -0 -0 -0 -0 -0 -0 -0 -0 -0 -0 -0 -0 -0 -0 -0 -0 -0 -0 -0 -0 -0 -0 -0 -0 -0 -0 -0 -0 -0 -0 -0 -0 -0 -0 -0 -0 -0 -0 -0 -0 -0 -0 -2 -18 -8
-0 -0 -0 -0 -0 -0 -0 -0 -0 -0 -0 -0 -0 -0 -0 -0 -0 -0 -0 -0 -0 -0 -0 -0 -0 -0 -0 -0 -0 -0 -0 -0 -0 -0 -0 -0 -0 -0 -0 -0 -0 -0 -0 -0 -0 -0 -0 -3 -1
-0 -0 -0 -0 -0 -0 -0 -0 -0 -0 -0 -0 -0 -0 -0 -0 -0 -0 -0 -0 -0 -0 -0 -0 -0 -0 -0 -0 -0 -0 -0 -0 -0 -0 -0 -0 -0 -0 -0 -0 -0 -0 -0 -0 -0 -0 -0 -0 -11
-0 -0 -0 -0 -0 -0 -0 -0 -0 -0 -0 -0 -0 -0 -0 -0 -0 -0 -0 -0 -0 -0 -0 -0 -0 -0 -0 -0 -0 -0 -0 -0 -0 -0 -0 -0 -0 -0 -0 -0 -0 -0 -6 -1 -1 -14 -0 -4 -19
-0 -0 -0 -0 -0 -0 -0 -0 -0 -0 -0 -0 -0 -0 -0 -0 -0 -0 -0 -0 -0 -0 -0 -0 -0 -0 -0 -0 -0 -0 -0 -0 -0 -0 -0 -0 -0 -0 -0 -0 -0 -0 -1 -6 -4 -0 -0 -2 -7
-0 -0 -0 -0 -0 -0 -0 -0 -0 -0 -0 -0 -0 -0 -0 -0 -0 -0 -0 -0 -0 -0 -0 -0 -0 -0 -0 -0 -0 -0 -0 -0 -0 -0 -0 -0 -0 -0 -0 -0 -0 -0 -4 -12 -16 -7 -0 -0 -0
-0 -0 -0 -0 -0 -0 -0 -0 -0 -0 -0 -0 -0 -0 -0 -0 -0 -0 -0 -0 -0 -0 -0 -0 -0 -0 -0 -0 -0 -0 -0 -0 -0 -0 -0 -0 -1 -10 -6 -5 -7 -6 -4 -11 -16 -7 -6 -0 -1
-0 -0 -0 -0 -0 -0 -0 -0 -0 -0 -0 -0 -0 -0 -0 -0 -0 -0 -0 -0 -0 -0 -0 -0 -0 -0 -0 -0 -0 -0 -0 -0 -0 -0 -0 -5 -7 -7 -11 -19 -17 -4 -21 -47 -21 -17 -5 -5 -14
-0 -0 -0 -0 -0 -0 -0 -0 -0 -0 -0 -0 -0 -0 -0 -0 -0 -0 -0 -0 -0 -0 -0 -0 -0 -0 -0 -0 -0 -0 -0 -0 -0 -0 -18 -9 -12 -9 -20 -27 -30 -16 -0 -92 -37 -20 -0 -9 -0
-0 -0 -0 -0 -0 -0 -0 -0 -0 -0 -0 -0 -0 -0 -0 -0 -0 -0 -0 -0 -0 -0 -0 -0 -0 -0 -0 -0 -0 -0 -0 -0 -0 -0 -0 -21 -23 -13 -0 -28 -31 -40 -22 -27 -37 -16 -31 -0 -2
-0 -0 -0 -0 -0 -0 -0 -0 -0 -0 -0 -0 -0 -0 -0 -0 -0 -0 -0 -0 -0 -0 -0 -0 -0 -0 -0 -0 -0 -0 -0 -0 -0 -0 -0 -0 -6 -0 -0 -0 -0 -0 -1 -16 -5 -17 -47 -25 -3
-0 -0 -0 -0 -0 -0 -0 -0 -0 -0 -0 -0 -0 -0 -0 -0 -0 -0 -0 -0 -0 -0 -0 -0 -0 -0 -0 -0 -0 -0 -0 -0 -0 -0 -0 -0 -0 -0 -0 -0 -0 -0 -0 -36 -0 -18 -35 -23 -1
-0 -0 -0 -0 -0 -0 -0 -0 -0 -0 -0 -0 -0 -0 -0 -0 -0 -0 -0 -0 -0 -0 -0 -0 -0 -0 -0 -0 -0 -0 -0 -0 -0 -0 -0 -0 -0 -0 -0 -0 -0 -0 -0 -0 -1 -5 -3 -1 -0
-0 -0 -0 -0 -0 -0 -0 -0 -0 -0 -0 -0 -0 -0 -0 -0 -0 -0 -0 -0 -0 -0 -0 -0 -0 -0 -0 -0 -0 -0 -0 -0 -0 -0 -0 -0 -0 -0 -0 -0 -0 -0 -0 -0 -3 -2 -0 -0 -0
-0 -0 -0 -0 -0 -0 -0 -0 -0 -0 -0 -0 -0 -0 -0 -0 -0 -0 -0 -0 -0 -0 -0 -0 -0 -0 -0 -0 -0 -0 -0 -0 -0 -0 -0 -0 -0 -0 -0 -0 -0 -0 -0 -0 -4 -6 -0 -0 -0
-0 -0 -0 -0 -0 -0 -0 -0 -0 -0 -0 -0 -0 -0 -0 -0 -0 -0 -0 -0 -0 -0 -0 -0 -0 -0 -0 -0 -0 -0 -0 -0 -0 -0 -0 -0 -0 -0 -0 -0 -0 -0 -0 -0 -0 -21 -0 -0 -0
-0 -0 -0 -0 -0 -0 -0 -0 -0 -0 -0 -0 -0 -0 -0 -0 -0 -0 -0 -0 -0 -0 -0 -0 -0 -0 -0 -0 -0 -0 -0 -0 -0 -0 -0 -0 -0 -0 -0 -0 -0 -0 -0 -0 -0 -22 -0 -0 -0
-0 -0 -0 -0 -0 -0 -0 -0 -0 -0 -0 -0 -0 -0 -0 -0 -0 -0 -0 -0 -0 -0 -0 -0 -0 -0 -0 -0 -0 -0 -0 -0 -0 -0 -0 -0 -0 -0 -0 -0 -0 -0 -0 -0 -0 -6 -0 -0 -0
-0 -0 -0 -0 -0 -0 -0 -0 -0 -0 -0 -0 -0 -0 -0 -0 -0 -0 -0 -0 -0 -0 -0 -0 -0 -0 -0 -0 -0 -0 -0 -0 -0 -0 -0 -0 -0 -0 -0 -0 -0 -0 -0 -0 -0 -26 -0 -0 -0
-0 -0 -0 -0 -0 -0 -0 -0 -0 -0 -0 -0 -0 -0 -0 -0 -0 -0 -0 -0 -0 -0 -0 -0 -0 -0 -0 -0 -0 -0 -0 -0 -0 -0 -0 -0 -0 -0 -0 -0 -0 -0 -0 -0 -0 -33 -0 -0 -0
Wind_Speed
3 3 2 5 4 4 3 6 2 3 2 2 1 3 3 1 5 4 2 8 7 10 7 7 9 7 7 6 5 5 5 6 7 7 7 7 7 8 9 9 10 9 8 8 9 8 10 9 9
2 2 5 3 5 2 5 4 6 6 2 3 2 1 2 5 1 1 6 8 10 10 8 6 9 8 7 6 5 5 5 6 6 7 8 8 8 8 9 10 10 9 10 9 10 10 8 8 9
2 4 4 5 3 5 5 5 5 2 1 2 2 2 2 4 2 4 4 12 10 8 7 6 9 8 7 5 5 5 5 5 6 7 8 9 9 9 9 9 9 10 9 9 9 9 8 6 9
3 5 5 4 5 7 6 3 4 2 2 2 0 5 4 3 4 2 8 12 10 7 6 7 9 8 7 6 4 4 5 6 6 7 8 9 10 10 11 9 9 9 9 8 9 9 8 7 5
4 3 4 1 5 6 5 4 5 4 2 2 3 4 4 1 3 6 11 11 11 7 5 5 8 7 7 6 5 4 4 6 6 7 9 10 10 11 11 11 10 11 8 8 9 11 8 7 6
4 3 3 3 5 5 5 3 5 3 2 1 2 1 5 1 4 6 9 10 8 9 6 5 7 7 6 5 4 4 3 4 6 7 9 10 11 11 12 11 11 11 10 9 9 11 10 8 6
6 4 4 3 5 5 4 5 3 3 2 6 3 3 3 2 5 9 8 8 7 6 6 5 4 4 5 5 4 3 3 4 6 8 10 10 12 12 13 12 12 11 11 11 10 11 12 11 9
5 5 3 4 3 6 1 3 1 5 6 2 5 6 5 2 7 8 7 6 6 5 5 5 4 3 2 1 1 3 3 5 6 8 9 10 10 11 11 13 12 14 13 12 11 12 12 11 12
3 4 2 5 6 4 2 3 2 0 1 3 6 4 1 6 10 7 4 3 4 4 5 4 4 4 3 3 1 3 4 5 7 7 8 7 5 7 9 11 14 15 14 13 12 13 12 10 6
4 4 9 4 4 3 2 4 2 2 3 5 6 4 3 7 7 10 8 10 7 7 6 6 5 5 4 2 3 2 2 3 3 4 5 4 6 6 8 9 13 13 14 14 14 14 13 6 3
4 6 4 4 5 2 2 3 2 3 7 10 8 6 6 7 8 9 9 8 10 5 4 7 6 5 5 3 2 1 2 2 2 4 4 4 4 5 5 4 4 5 8 5 8 8 4 5 3
2 5 4 3 1 1 3 4 5 7 8 2 8 3 5 9 12 13 11 10 6 6 6 4 6 5 4 2 2 2 1 1 2 3 5 4 3 5 6 5 6 5 5 7 6 4 4 4 5
4 3 3 4 4 5 2 7 6 13 12 9 7 5 8 8 10 7 5 4 5 6 5 5 4 5 4 4 2 1 0 1 3 3 4 3 4 4 5 6 6 5 6 5 5 5 4 4 4
2 3 6 6 2 3 4 4 2 6 1 3 4 8 9 9 11 5 6 7 8 5 4 3 4 4 5 3 3 1 1 3 3 3 3 4 3 3 5 6 6 6 4 4 4 5 4 4 2
0 5 6 2 1 4 3 6 12 7 5 8 7 7 6 9 6 11 9 9 8 5 5 5 6 6 5 4 3 1 1 2 3 3 4 5 4 5 5 5 5 5 5 5 4 4 3 4 3
1 3 3 0 3 1 1 8 6 3 3 9 7 6 6 6 9 7 6 6 6 5 6 6 6 7 5 4 2 1 2 1 2 3 3 5 6 6 5 4 5 6 6 5 4 4 3 3 3
5 4 2 7 1 1 2 7 7 2 2 9 9 8 6 6 5 5 6 6 6 6 8 7 7 6 5 3 2 3 2 2 3 3 3 5 5 5 4 4 5 6 5 4 4 4 6 5 4
5 4 3 5 1 1 4 20 14 14 11 13 11 7 7 7 7 4 5 5 7 8 8 8 6 6 5 3 2 2 1 2 1 2 3 3 4 5 5 6 6 5 6 5 4 3 4 6 4
4 2 2 3 1 3 6 14 18 14 7 8 8 6 5 6 1 4 5 7 8 7 8 8 8 5 3 1 2 1 1 1 1 3 5 5 6 5 6 6 6 5 5 7 6 3 6 5 8
1 1 6 5 1 1 5 20 16 6 5 4 3 4 3 3 4 4 5 5 4 7 6 7 6 5 3 2 1 1 0 1 2 3 4 5 6 7 6 6 6 7 5 6 6 3 5 3 4
3 5 3 5 4 1 6 10 5 3 4 3 3 1 0 5 6 5 6 6 6 6 6 6 5 5 4 3 2 1 1 1 1 2 3 5 7 6 6 6 6 6 5 5 6 4 7 7 3
2 4 2 0 3 3 3 6 5 5 9 5 5 5 4 4 4 5 5 5 6 6 5 6 6 5 4 3 2 3 1 0 1 2 3 5 7 6 6 6 6 6 5 6 3 2 3 6 7
4 2 3 2 3 2 1 3 11 4 7 4 7 7 5 5 6 7 7 7 5 6 5 5 6 5 4 3 4 3 2 1 1 2 4 5 6 6 6 6 7 6 5 6 2 3 3 5 8
6 5 7 4 2 3 2 4 11 4 5 1 1 5 5 6 6 6 5 6 5 4 5 5 6 4 4 3 5 3 3 1 1 2 3 4 5 4 5 7 6 6 6 7 2 3 7 7 8
3 5 4 6 5 7 3 2 13 5 5 3 2 6 6 6 7 7 8 7 6 7 6 5 6 5 4 3 4 3 3 2 1 1 2 4 4 3 6 7 7 4 5 6 4 5 6 8 9
5 5 7 7 3 4 2 7 9 6 2 6 3 2 6 7 6 8 8 7 7 7 7 5 6 5 4 3 4 3 3 1 1 1 1 2 3 4 5 6 7 6 6 5 4 4 5 7 7
4 4 3 8 2 4 4 8 11 2 5 7 4 1 6 7 7 7 7 7 7 7 8 8 7 5 5 4 3 3 2 3 2 2 1 2 5 3 5 5 6 6 6 4 5 4 6 6 7
3 2 3 3 2 4 5 6 8 7 9 10 5 4 4 5 6 6 7 7 6 5 6 6 6 6 5 4 3 3 3 2 2 2 2 4 4 4 4 5 5 5 5 4 3 3 7 7 6
3 2 2 2 4 5 1 7 6 3 4 6 7 7 5 5 6 7 6 6 7 5 6 6 6 6 6 4 3 3 3 1 2 2 3 4 4 4 4 5 5 4 3 3 3 4 7 9 7
1 2 6 4 5 0 3 8 4 4 4 6 7 8 6 3 6 7 7 7 7 7 6 7 6 6 6 5 4 3 2 1 2 3 3 3 5 4 4 4 5 5 3 3 1 6 7 8 9
Wind_Direction
7 19 69 43 60 64 264 257 270 243 238 201 114 174 202 196 171 214 335 178 158 148 147 130 127 114 103 94 80 65 48 33 21 14 11 7 1 356 346 354 354 3 335 315 298 280 247 240 226
3 63 47 81 92 84 262 255 235 226 214 138 151 139 284 258 225 175 136 193 166 145 139 133 132 122 117 105 88 75 56 36 25 15 6 3 0 357 352 343 337 341 352 334 315 308 287 249 231
103 42 82 92 113 190 228 221 234 293 168 192 218 212 207 233 245 201 197 150 148 138 139 145 137 133 127 110 90 69 57 48 29 18 10 3 358 355 352 345 331 321 331 339 337 327 314 263 231
81 20 47 96 218 247 212 255 222 188 260 253 33 285 285 204 162 202 144 144 144 148 148 156 149 145 139 126 101 72 55 45 41 29 17 5 360 352 347 341 343 327 299 302 329 330 332 342 251
38 58 72 89 247 257 245 236 173 199 223 202 166 261 255 209 58 121 146 149 152 156 164 166 156 153 147 140 118 83 53 40 32 26 15 6 359 354 346 342 334 326 309 305 312 321 321 324 310
52 99 75 237 246 259 267 201 158 208 213 178 210 269 247 83 148 152 153 154 154 160 169 178 165 163 161 152 131 106 69 40 28 21 9 3 1 352 344 334 326 321 315 311 301 297 310 302 300
116 96 199 218 261 292 241 135 196 200 196 240 163 197 256 213 197 153 157 148 155 169 172 179 175 171 162 156 149 96 54 41 22 15 10 3 355 349 342 334 325 313 307 302 295 290 301 303 294
106 95 157 232 218 266 200 204 190 178 247 52 176 227 255 183 146 130 135 154 165 181 189 189 186 175 173 174 189 107 62 39 24 13 7 2 354 344 336 332 322 313 304 298 292 285 284 290 289
137 72 231 244 168 246 180 215 197 94 261 233 213 209 226 127 131 123 131 161 185 209 210 197 198 196 191 189 186 78 46 39 25 9 -0 355 346 335 328 325 323 318 309 301 295 290 283 288 258
102 135 218 214 205 238 260 187 261 308 223 245 273 248 112 148 168 166 179 192 196 207 210 202 206 203 192 202 120 80 48 29 7 357 351 347 337 333 329 323 321 320 311 304 305 304 289 227 234
167 200 211 252 231 225 265 280 236 205 262 223 209 237 175 181 191 198 205 194 205 196 198 197 202 199 191 180 129 72 36 355 351 355 350 335 329 324 319 312 314 315 305 301 312 311 270 199 201
198 240 217 262 225 168 246 307 278 208 239 184 218 217 170 193 203 207 211 206 184 195 212 202 202 192 188 136 109 85 19 336 345 333 331 328 327 325 320 315 315 309 306 304 312 310 266 188 192
200 246 186 263 280 249 312 251 244 262 253 259 242 235 218 213 215 220 219 193 194 208 213 214 186 187 158 135 116 127 290 348 326 322 317 322 320 316 316 311 312 309 304 303 311 313 263 165 179
184 281 266 278 227 240 217 266 55 257 229 230 204 243 235 224 219 199 190 203 204 206 212 169 170 144 133 139 139 146 2 344 324 316 321 319 310 304 304 306 307 304 288 298 307 307 246 188 144
40 313 311 216 256 235 179 271 234 243 289 283 279 264 245 235 216 214 210 204 192 197 154 152 128 128 128 129 129 78 10 358 324 308 312 323 310 302 298 295 292 293 282 292 304 302 219 151 132
21 66 342 298 146 317 311 260 271 355 179 269 277 275 264 255 231 221 207 204 188 149 148 126 128 120 124 117 105 51 22 345 325 331 321 315 304 295 301 299 298 302 298 302 311 308 202 132 140
359 248 218 317 169 14 157 276 266 333 262 280 274 267 263 265 254 226 208 192 168 148 133 121 120 121 116 99 65 48 9 344 340 321 309 307 298 293 300 299 307 313 301 280 268 283 168 154 159
204 219 241 265 309 147 257 266 269 275 260 261 277 278 265 254 247 200 164 129 123 121 119 123 117 121 110 89 62 34 355 4 323 304 285 307 310 308 327 323 319 323 320 309 298 291 195 137 159
117 164 248 264 300 294 242 281 286 288 246 272 278 291 281 245 89 97 109 115 112 107 124 130 131 138 116 84 59 32 8 331 330 325 337 340 327 332 342 317 318 316 324 299 297 249 163 107 124
101 320 274 269 225 210 337 291 277 291 245 207 258 301 285 136 126 109 115 113 112 135 132 130 135 141 119 106 117 124 298 312 289 313 336 347 343 358 320 318 317 324 326 309 312 225 126 96 153
203 201 217 236 323 181 321 290 324 276 276 234 225 220 146 180 167 145 141 137 125 139 153 141 147 128 119 117 124 122 43 321 328 357 346 350 346 331 317 324 328 316 322 316 301 159 153 142 87
254 212 175 151 54 253 2 284 290 304 296 252 235 220 214 162 144 146 159 141 151 163 151 144 140 130 122 126 141 87 121 147 324 322 330 336 332 330 336 335 337 332 324 337 338 195 116 125 137
220 75 105 70 105 6 321 104 271 338 298 260 222 218 210 169 169 171 175 157 168 158 150 161 127 125 122 152 111 122 126 233 346 332 350 338 319 323 340 345 351 343 334 335 287 134 129 117 151
149 76 48 49 66 39 309 137 283 237 230 227 129 208 193 155 167 163 165 144 151 148 147 165 131 138 134 174 111 145 130 108 359 339 351 342 324 336 351 351 348 345 343 336 334 92 125 114 115
78 72 339 356 7 218 342 84 246 283 262 249 120 203 192 162 165 161 172 176 167 170 169 171 143 146 157 164 141 165 139 151 248 334 356 330 328 350 343 341 341 343 339 332 357 89 107 122 120
177 163 161 208 207 252 27 227 252 213 315 255 280 94 162 174 184 180 191 180 182 174 170 176 157 148 165 187 167 174 153 125 271 242 202 298 297 308 322 321 321 335 340 344 346 102 102 119 120
196 198 150 103 35 52 231 283 297 255 298 280 301 157 208 191 200 192 192 183 183 180 181 180 160 153 167 206 180 191 170 164 238 287 336 276 275 311 319 311 317 323 330 342 350 117 117 113 125
162 149 91 351 182 254 299 286 241 346 337 346 313 298 267 183 196 191 195 186 185 183 176 172 158 162 172 201 198 198 198 193 256 271 298 287 303 310 310 302 302 316 317 328 352 93 131 123 122
137 195 50 156 143 171 183 262 209 311 348 357 353 319 291 213 204 202 203 195 180 165 174 176 157 163 166 191 211 193 221 185 271 273 296 284 278 288 295 293 301 300 326 335 310 111 130 139 134
351 225 164 154 241 104 144 276 187 211 102 63 20 357 338 272 204 198 199 182 181 179 176 178 164 178 175 178 203 196 228 213 267 269 263 290 288 287 266 278 282 296 300 294 14 116 123 127 131